Location: Bühlhof
(48.7849°N, 8.6361°E)
Time: 20:08:52
(UTC+00:00)

Cosmos 2181 Rocket - Pass Details

Date: 19 January 2026
Orbit: 952 x 1013 km, 82.9° (Epoch: 16 February)

Event Time Altitude Azimuth Distance (km) Brightness Sun altitude
Rises 17:03:36 0° 185° (S) 3,624 7.3 -9.9°
Reaches altitude 10° 17:06:04 10° 185° (S) 2,688 6.6 -10.3°
Maximum altitude 17:12:14 86° 98° (E) 979 4.0 -11.3°
Drops below altitude 10° 17:18:32 10° 10° (N) 2,745 6.1 -12.3°
Sets 17:21:04 0° 10° (N) 3,707 6.8 -12.7°
